McCook, NE

11:27 AM CDT on September 25, 2016 (GMT -0500)
McCook Municipal

Weather History for KMCK - November, 2014

Change the Weather History Date:

Thursday, November 27, 2014

  Actual Average Record
Temperature  
Mean Temperature 37 °F 33 °F  
Max Temperature 57 °F 46 °F 73 °F (1960)
Min Temperature 17 °F 19 °F -6 °F (1952)
Degree Days  
Heating Degree Days 29    
Moisture  
Dew Point 21 °F    
Average Humidity 59    
Maximum Humidity 89    
Minimum Humidity 31    
Precipitation  
Precipitation 0.00 in 0.02 in 0.37 in (1990)
Month to date precipitation T 0.87  
Year to date precipitation 22.90 21.81  
Sea Level Pressure  
Sea Level Pressure 30.24 in    
Wind  
Wind Speed 7 mph (SSE)    
Max Wind Speed 14 mph    
Max Gust Speed 20 mph    
Visibility 10 miles    
Events      
T = Trace of Precipitation, MM = Missing Value Source: NWS Daily Summary

Daily Weather History Graph

Daily Weather History Graph

Search for Another Location

Airport or City:

Trip Planner

Search our weather history database for the weather conditions in past years. The results will help you decide how hot, cold, wet, or windy it might be!

Date:

Astronomy

Nov. 27, 2014 Rise Set
Actual Time 7:41 AM CST 5:18 PM CST
Civil Twilight 7:11 AM CST 5:48 PM CST
Nautical Twilight 6:38 AM CST 6:21 PM CST
Astronomical Twilight 6:05 AM CST 6:54 PM CST
Moon 11:57 AM CST (11/27) 11:00 PM CST (11/27)
Length of Visible Light 10h 36m
Length of Day
9h 36m
Waxing Crescent, 31% of the Moon is Illuminated
Nov 27
Waxing Crescent
Nov 29
First Quarter
Dec 6
Full
Dec 14
Last Quarter
Dec 21
New

Hourly Weather History & Observations

Time (CST) Temp. Windchill Dew Point Humidity Pressure Visibility Wind Dir Wind Speed Gust Speed Precip Events Conditions
12:53 AM 30.0 °F 26.5 °F 19.0 °F 64% 30.44 in 10.0 mi East 3.5 mph - N/A   Overcast
1:53 AM 28.0 °F 24.2 °F 19.0 °F 69% 30.45 in 10.0 mi ESE 3.5 mph - N/A   Overcast
2:53 AM 25.0 °F 19.3 °F 17.1 °F 72% 30.45 in 10.0 mi ESE 4.6 mph - N/A   Clear
3:53 AM 21.9 °F 14.5 °F 16.0 °F 78% 30.45 in 10.0 mi South 5.8 mph - N/A   Clear
4:53 AM 19.9 °F 11.1 °F 15.1 °F 81% 30.43 in 10.0 mi ESE 6.9 mph - N/A   Clear
5:53 AM 19.9 °F 12.1 °F 17.1 °F 89% 30.41 in 10.0 mi South 5.8 mph - N/A   Clear
6:53 AM 19.0 °F 9.0 °F 16.0 °F 88% 30.42 in 10.0 mi East 8.1 mph - N/A   Clear
7:53 AM 17.1 °F 7.6 °F 14.0 °F 88% 30.41 in 10.0 mi ESE 6.9 mph - N/A   Clear
8:53 AM 24.1 °F 17.0 °F 18.0 °F 77% 30.38 in 10.0 mi SSE 5.8 mph - N/A   Clear
9:53 AM 32.0 °F 23.6 °F 19.0 °F 59% 30.36 in 10.0 mi South 10.4 mph - N/A   Clear
10:53 AM 37.9 °F 30.9 °F 21.0 °F 51% 30.33 in 10.0 mi South 10.4 mph - N/A   Clear
11:53 AM 44.1 °F 38.6 °F 21.9 °F 42% 30.27 in 10.0 mi South 10.4 mph - N/A   Clear
12:53 PM 48.9 °F - 23.0 °F 36% 30.21 in 10.0 mi South 8.1 mph - N/A   Clear
1:53 PM 53.1 °F - 25.0 °F 34% 30.15 in 10.0 mi SSE 11.5 mph - N/A   Clear
2:53 PM 53.1 °F - 26.1 °F 35% 30.13 in 10.0 mi SE 10.4 mph - N/A   Clear
3:53 PM 55.0 °F - 25.0 °F 31% 30.10 in 10.0 mi SE 12.7 mph 19.6 mph N/A   Clear
4:53 PM 53.1 °F - 26.1 °F 35% 30.10 in 10.0 mi South 13.8 mph - N/A   Clear
5:53 PM 46.9 °F - 25.0 °F 42% 30.09 in 10.0 mi SE 6.9 mph - N/A   Clear
6:53 PM 46.0 °F 41.0 °F 26.1 °F 46% 30.08 in 10.0 mi South 10.4 mph - N/A   Clear
7:53 PM 43.0 °F 38.8 °F 26.1 °F 51% 30.08 in 10.0 mi South 6.9 mph - N/A   Clear
8:53 PM 41.0 °F 34.7 °F 26.1 °F 55% 30.04 in 10.0 mi SW 10.4 mph - N/A   Clear
9:53 PM 37.9 °F 32.1 °F 25.0 °F 60% 30.04 in 10.0 mi West 8.1 mph - N/A   Clear
10:53 PM 37.9 °F 30.5 °F 25.0 °F 60% 30.02 in 10.0 mi West 11.5 mph - N/A   Clear
11:53 PM 36.0 °F 27.5 °F 24.1 °F 62% 30.01 in 10.0 mi West 12.7 mph - N/A   Clear